Tracking 18843 objects as of 20-November-2017
HD Live streaming from Space Station
objects crossing your sky now

WESTFORD NEEDLES

Track WESTFORD NEEDLES now!
10-day predictions
WESTFORD NEEDLES is classified as:


NORAD ID: 19299
Int'l Code: 1963-014EL
Perigee: 2,761.2 km
Apogee: 4,496.1 km
Inclination: 87.1 °
Period: 165.9 minutes
Semi major axis: 9999 km
RCS: 0.2061 m2 (medium)
Launch date: May 9, 1963
Source: United States (US)
Launch site: AIR FORCE WESTERN TEST RANGE (AFWTR)
aabbcc
Your satellite tracking list
Your tracking list is empty




NASA's NSSDC Master Catalog

Two Line Element Set (TLE):
1 19299U 63014EL  17321.25595896  .00001962  00000-0  61137+0 0  9992
2 19299  87.1449  49.1425 0867506 324.5419  51.9262  8.68210167956576
Source of the keplerian elements: AFSPC